• MPC Preparation (Info)

  • MPEC 2014-S61 : 2014 SS143

    The following Minor Planet Electronic Circular may be linked-to from your own Web pages, but must not otherwise be redistributed electronically.

    A form allowing access to any MPEC is at the bottom of this page.


    Read MPEC 2014-S60 Read MPEC 2014-S62


    M.P.E.C. 2014-S61                                Issued 2014 Sept. 23, 17:05 UT
    
         The Minor Planet Electronic Circulars contain information on unusual
             minor planets and routine data on comets.  They are published
       on behalf of Commission 20 of the International Astronomical Union by the
              Minor Planet Center, Smithsonian Astrophysical Observatory,
                              Cambridge, MA 02138, U.S.A.
    
                 Prepared using the Tamkin Foundation Computer Network
    
                                  MPC@CFA.HARVARD.EDU
                URL https://www.minorplanetcenter.net/    ISSN 1523-6714
    
                                      2014 SS143
    
    Observations:
         K14SE3S* C2014 09 20.42766 00 04 59.169-00 53 52.72         21.5 wLES061F51
         K14SE3S  C2014 09 20.43985 00 05 01.196-00 54 06.10         21.5 wLES061F51
         K14SE3S  C2014 09 20.45203 00 05 03.250-00 54 19.38         21.5 wLES061F51
         K14SE3S  C2014 09 20.46427 00 05 05.296-00 54 32.73         21.6 wLES061F51
         K14SE3S _C2014 09 21.45666700 09 15.938-01 14 54.61         20.9 RtES061568
         K14SE3S _C2014 09 21.45792000 09 16.181-01 14 56.18         20.8 RtES061568
         K14SE3S _C2014 09 21.45917500 09 16.470-01 14 57.94         20.7 RtES061568
         K14SE3S  C2014 09 22.42800 00 14 30.682-01 40 26.41         21.0 wLES061F51
         K14SE3S  C2014 09 22.43999 00 14 34.207-01 40 48.16         20.8 wLES061F51
         K14SE3S  C2014 09 22.45199 00 14 37.764-01 41 09.70         21.0 wLES061F51
         K14SE3S KC2014 09 23.20082 00 19 49.85 -02 07 11.0          20.7 VqES061H21
         K14SE3S KC2014 09 23.21087 00 19 53.87 -02 07 33.7                qES061H21
         K14SE3S KC2014 09 23.22090 00 19 57.82 -02 07 56.6          20.9 VqES061H21
    
    Observer details:
    568 Mauna Kea.  Observers R. J. Wainscoat, A. Draginda.  Measurers M. Micheli,
        R. J. Wainscoat.  3.6-m Canada-France-Hawaii Telescope + CCD.
    F51 Pan-STARRS 1, Haleakala.  Observers N. Primak, A. Schultz, T. Goggia,
        M. Willman.  Measurers B. Bolin, K. Chambers, S. Chastel, L. Denneau,
        H. Flewelling, M. Huber, E. Magnier, E. Schunova, R. Wainscoat, C. Waters,
        P. Veres.  1.8-m Ritchey-Chretien + CCD.
    H21 Astronomical Research Observatory, Westfield.  Observer R. Holmes.
        Measurers L. Buzzi, S. Foglia, T. Vorobjov, T. Linder.  0.61-m f/4.0
        astrograph + CCD.
    
    Orbital elements:
    2014 SS143                                               Earth MOID = 0.0063 AU
    Epoch 2014 Dec. 9.0 TT = JDT 2457000.5                  MPC
    M  12.09548              (2000.0)            P               Q
    n   0.54433486     Peri.  259.92726     +0.26671074     -0.96377245
    a   1.4855660      Node   174.60161     +0.89563180     +0.24676504
    e   0.4579421      Incl.    1.72701     +0.35596217     +0.10124067
    P   1.81           H   27.0           G   0.15           U   7
    Residuals in seconds of arc
    140920 F51  0.1+  0.0     140921 568  0.4-  0.0     140923 H21  0.3-  0.1-
    140920 F51  0.1-  0.0     140921 568  0.2-  0.0     140923 H21  0.2+  0.0
    140920 F51  0.1+  0.0     140922 F51  0.0   0.2+    140923 H21  0.2-  0.2-
    140920 F51  0.1-  0.0     140922 F51  0.1-  0.1-
    140921 568  0.1+  0.2-    140922 F51  0.2+  0.0
    
    Ephemeris:
    2014 SS143               a,e,i = 1.49, 0.46, 2                   q = 0.8053
    Date    TT    R. A. (2000) Decl.     Delta      r     Elong.  Phase     V
    2014 08 24    23 36 11.1 +00 24 51   0.2718  1.2639   155.7    19.2    25.7
    ...
    2014 09 08    23 45 00.3 +00 33 08   0.1502  1.1550   168.1    10.3    23.9
    ...
    2014 09 16    23 53 52.1 -00 00 17   0.09200 1.0971   174.2     5.3    22.5
    ...
    2014 09 22    00 12 01.8 -01 27 18   0.05058 1.0543   175.7     4.1    21.0
    2014 09 23    00 18 16.7 -01 57 39   0.04386 1.0473   174.8     5.0    20.7
    2014 09 24    00 26 45.1 -02 38 40   0.03722 1.0403   173.3     6.5    20.4
    ...
    2014 09 30    07 19 59.2 -16 45 31   0.01036 0.9991    75.9   103.6    20.9
    ...
    2014 10 08    10 59 03.1 -04 24 53   0.05961 0.9473    28.4   149.8    29.2
    ...
    2014 10 23    11 28 32.4 -03 01 28   0.1666  0.8654    35.8   137.8    29.4
    
    A. U. Tomatic                (C) Copyright 2014 MPC           M.P.E.C. 2014-S61
    

    Read MPEC 2014-S60 Read MPEC 2014-S62


    MPEC number:

    Enter an MPEC number in one of the following forms:

    • 1997-B01 (the full form)
    • J97B01 (the packed version of the full form)
    • B01 (the abbreviated form)